Flag for Germany Weather past 2 weeks in Georgsmarienhütte, Lower Saxony, Germany

Now
55 °F

Clear.


Feels Like: 55 °F
Forecast: 56 / 63 °F
Wind: No wind

Location: Muenster / Osnabrueck

Current Time: Jul 7, 2015 at 2:47:34 AM

Latest Report: Jul 7, 2015 at 2:20 AM


Visibility: 10 mi

Pressure: 30.01 "Hg

Humidity: 94%

Dew point: 54 °F

Location of GeorgsmarienhütteLocation

Historic Weather in Georgsmarienhütte — Graph

°F

Georgsmarienhütte temperature yesterday

Maximum temperature yesterday: 77 °F (at 4:50 PM)
Minimum temperature yesterday: 57 °F (at 4:20 AM)
Average temperature yesterday: 67 °F

Past Weeks' High & Low Weather Summary

 TemperatureHumidityPressure
High99 °F (Jul 2, 3:20 PM)100% (Jun 22, 1:20 AM)30.27 "Hg (Jun 22, 1:20 AM)
Low46 °F (Jun 23, 3:50 AM)25% (Jul 1, 2:20 PM)29.65 "Hg (Jun 22, 8:50 PM)
Average68 °F68%30.07 "Hg
* Reported Jun 22 1:20 AM — Jul 7 1:20 AM, Georgsmarienhütte, Weather by CustomWeather, © 2015

Note: Actual official high and low records may vary slightly from our data, if they occured in-between our weather recording intervals... More about our weather records

Advertising

Georgsmarienhütte weather history for previous 24 hours

 ConditionsComfort  
Time TempWeatherWind HumidityBarometerVisibility
1:20 AM
Tue, Jul 7
57 °FClear.2 mph82%30.04 "Hg10 mi
12:50 AM57 °FClear.No wind82%30.04 "Hg10 mi
12:20 AM59 °FClear.1 mph82%30.04 "Hg10 mi
11:50 PM
Mon, Jul 6
59 °FClear.1 mph77%30.07 "Hg10 mi
11:20 PM61 °FClear.1 mph72%30.07 "Hg10 mi
10:50 PM63 °FClear.1 mph68%30.07 "Hg10 mi
10:20 PM63 °FSunny.1 mph68%30.07 "Hg10 mi
9:50 PM64 °FSunny.2 mph64%30.07 "Hg10 mi
9:20 PM70 °FSunny.2 mph53%30.07 "Hg10 mi
8:50 PM72 °FSunny.5 mph44%30.07 "Hg10 mi
8:20 PM73 °FSunny.5 mph44%30.07 "Hg10 mi
7:50 PM75 °FSunny.7 mph39%30.09 "Hg10 mi
7:20 PM75 °FSunny.9 mph39%30.09 "Hg10 mi
6:50 PM75 °FSunny.9 mph39%30.09 "Hg10 mi
6:20 PM77 °FSunny.10 mph36%30.09 "Hg10 mi
5:50 PM77 °FPassing clouds.7 mph34%30.09 "HgN/A
5:20 PM75 °FSunny.9 mph36%30.09 "Hg10 mi
4:50 PM77 °FSunny.8 mph34%30.12 "Hg10 mi
4:20 PM75 °FSunny.9 mph39%30.12 "Hg10 mi
3:50 PM73 °FSunny.10 mph41%30.12 "Hg10 mi
3:20 PM73 °FSunny.12 mph41%30.12 "Hg10 mi
2:50 PM73 °FSunny.13 mph41%30.12 "Hg10 mi
2:20 PM73 °FScattered clouds.13 mph41%30.12 "HgN/A
1:50 PM72 °FScattered clouds.15 mph44%30.15 "HgN/A
1:20 PM73 °FScattered clouds.14 mph47%30.15 "HgN/A
12:50 PM70 °FScattered clouds.14 mph50%30.12 "HgN/A
12:20 PM70 °FScattered clouds.13 mph53%30.15 "HgN/A
11:50 AM70 °FScattered clouds.12 mph57%30.15 "HgN/A
11:20 AM68 °FScattered clouds.12 mph60%30.15 "HgN/A
10:50 AM68 °FScattered clouds.10 mph60%30.15 "HgN/A
10:20 AM68 °FScattered clouds.12 mph60%30.15 "HgN/A
9:50 AM68 °FPassing clouds.9 mph64%30.15 "HgN/A
9:20 AM64 °FPassing clouds.10 mph68%30.15 "HgN/A
8:50 AM64 °FPassing clouds.9 mph73%30.12 "HgN/A
8:20 AM63 °FPassing clouds.12 mph77%30.12 "HgN/A
7:50 AM63 °FPassing clouds.9 mph83%30.12 "HgN/A
7:20 AM61 °FSunny.9 mph88%30.12 "Hg10 mi
6:50 AM61 °FSunny.8 mph88%30.12 "Hg10 mi
6:20 AM61 °FSunny.7 mph88%30.09 "Hg10 mi
5:50 AM61 °FClear.7 mph88%30.09 "Hg10 mi
5:20 AM59 °FClear.5 mph94%30.09 "Hg10 mi
4:50 AM61 °FClear.8 mph88%30.09 "Hg10 mi
4:20 AM57 °FClear.5 mph94%30.09 "Hg10 mi
3:50 AM61 °FClear.7 mph88%30.09 "Hg10 mi
3:20 AM61 °FClear.6 mph88%30.09 "Hg10 mi
2:50 AM61 °FClear.6 mph88%30.07 "Hg10 mi
2:20 AM63 °FClear.7 mph88%30.07 "Hg10 mi
Weather by CustomWeather, © 2015

See weather overviewHow to use our weather pages